[[{"header":{"parameterUnit":"m.s-1","parameterCategory":1,"la1":30.2991,"la2":30.254,"lo1":-89.0895,"lo2":-89.0444,"dy":0.0017,"dx":0.0017,"nx":28,"ny":28,"refTime":"2023-09-09T21:00:00:Z","depth":0,"parameterNumber":2,"parameterNumberName":"U-component_of_WINDS"},"data":[0,0,0,0,0,0,0,0,0,0,0,0,0,0,0,0,0,0,0,0,0,0,0,0,0,0,0,0,0,0,0,0,0,0,0,0,0,0,0,0,0,0,0,0,0,0,0,0,0,0,0,0,0,0,0,0,0,0,0.5134,0.5134,0,0.5114,0.5114,0.5113,0.5148,0.5149,0.515,0.5152,0.5124,0.5122,0.512,0,0,0,0,0,0,0,0,0,0,0,0,0,0.5199,0.5197,0.5134,0.5134,0.5134,0.5114,0.5113,0.5113,0.5148,0.5149,0.5151,0.5152,0.5125,0.5122,0.512,0,0,0,0,0,0,0,0,0,0,0,0,0,0.5173,0.5197,0.5134,0.5149,0.515,0.5114,0.5113,0.5113,0.5147,0.5149,0.5151,0.5153,0.5125,0.5123,0.512,0.5067,0,0,0.5111,0.511,0,0,0,0,0,0,0,0,0.5175,0.5171,0.5147,0.5148,0.5149,0.5136,0.5126,0.5097,0.5147,0.5148,0.5152,0.5154,0.5126,0.5123,0.5115,0.5065,0.5064,0.5111,0.511,0.5108,0.5108,0,0,0,0,0,0,0,0.5177,0.5172,0.5126,0.5147,0.5148,0.5155,0.5153,0.5121,0.5127,0.5148,0.5151,0.5148,0.5127,0.5118,0.5115,0.5064,0.5111,0.5109,0.5107,0.5106,0.4968,0.4967,0,0,0,0,0,0,0.5177,0.5173,0.5127,0.5125,0.5167,0.5152,0.515,0.5138,0.5128,0.5128,0.5147,0.515,0.5122,0.5118,0.5114,0.505,0.5108,0.5106,0.5104,0.497,0.4968,0.4966,0,0,0,0,0,0,0.5179,0.5173,0.5128,0.515,0.5145,0.5149,0.5135,0.5136,0.5128,0.5126,0.5127,0.5137,0.5123,0.5118,0.5078,0.5049,0.5104,0.5102,0.4973,0.497,0.4967,0.4921,0,0,0,0,0,0,0.518,0.5173,0.5154,0.515,0.5144,0.5094,0.5133,0.5135,0.5123,0.5127,0.5117,0.5117,0.5124,0.5082,0.5076,0.5046,0.51,0.4975,0.4971,0.4968,0.4925,0.4917,0.491,0,0,0,0,0,0.5182,0.5141,0.5153,0.5147,0.512,0.5092,0.5088,0.5099,0.5121,0.5101,0.51,0.5117,0.5054,0.5078,0.5071,0.504,0.4977,0.4973,0.4968,0.4929,0.4919,0.491,0,0,0,0,0,0,0.5139,0.514,0.5154,0.511,0.5101,0.5098,0.5073,0.5088,0.5071,0.5075,0.5087,0.5085,0.5042,0.5038,0.5064,0.4988,0.5019,0.5013,0.4992,0.4982,0.4975,0.4975,0.5097,0,0,0,0,0,0.5125,0.5104,0.5106,0.5066,0.5062,0.5068,0.5056,0.5066,0.5056,0.5051,0.5048,0.5036,0.5014,0.4998,0.4978,0.4926,0.4923,0.4902,0.4894,0.4888,0.4881,0.4852,0.4842,0.4951,0.4951,0.4951,0,0,0.5094,0.5092,0.5078,0.5058,0.5052,0.5028,0.5064,0.5037,0.5019,0.5047,0.5009,0.5006,0.4994,0.4948,0.4928,0.4943,0.4851,0.4882,0.4877,0.4874,0.4847,0.4836,0.4827,0.4948,0.4949,0.4949,0,0,0.5025,0.5023,0.499,0.4984,0.4976,0.4981,0.4973,0.4968,0.4968,0.4931,0.4951,0.4929,0.4891,0.4881,0.487,0.48,0.4814,0.4793,0.4752,0.4724,0.4715,0.4707,0.468,0.467,0.4787,0.4787,0.4787,0,0.4987,0.4954,0.497,0.4942,0.4932,0.4959,0.4924,0.4917,0.4901,0.4893,0.4911,0.4864,0.4857,0.4809,0.4792,0.4784,0.4773,0.4793,0.4715,0.4708,0.4701,0.4675,0.4665,0.4785,0.4785,0.4785,0.4785,0,0.4907,0.4883,0.4857,0.4843,0.4831,0.4799,0.4809,0.4794,0.4805,0.4808,0.4769,0.4764,0.4742,0.4732,0.4741,0.4684,0.4694,0.4714,0.4745,0.4687,0.4663,0.4653,0.4781,0.4782,0.4782,0.4783,0,0,0.4806,0.4805,0.4794,0.4788,0.4782,0.4763,0.4733,0.4714,0.47,0.4689,0.4662,0.463,0.4649,0.4637,0.4646,0.4622,0.4564,0.4645,0.4644,0.4627,0.4498,0.4481,0.447,0.4575,0.4574,0.4572,0.4499,0,0.4736,0.4686,0.47,0.4649,0.4626,0.4653,0.4626,0.4618,0.4621,0.46,0.4602,0.4578,0.4606,0.4599,0.4577,0.4576,0.4538,0.4582,0.4547,0.4546,0.4546,0.4457,0.4439,0.437,0.4489,0.4488,0.4487,0,0.4647,0.4635,0.4581,0.4579,0.457,0.4546,0.453,0.4512,0.4503,0.4506,0.4494,0.4509,0.4477,0.4511,0.4467,0.4496,0.4484,0.4481,0.4479,0.4473,0.451,0.4446,0.4348,0.4336,0.4472,0.4473,0.4475,0,0.4576,0.4546,0.451,0.4505,0.4502,0.4484,0.4482,0.4476,0.4464,0.4449,0.4441,0.4422,0.4411,0.4396,0.4404,0.4429,0.4357,0.4392,0.4356,0.4356,0.4337,0.4337,0.4232,0.4334,0.4334,0.4334,0.4334,0,0.4494,0.446,0.4479,0.4456,0.4418,0.4435,0.4397,0.4397,0.4392,0.4368,0.4391,0.4368,0.4382,0.436,0.4366,0.4327,0.4322,0.4322,0.4323,0.4318,0.4318,0.4307,0.4311,0.4332,0.4332,0.4333,0.4333,0,0.4407,0.4419,0.4381,0.4382,0.4382,0.4354,0.4354,0.4332,0.4338,0.4308,0.4302,0.4308,0.4284,0.4292,0.4264,0.4269,0.4218,0.4227,0.4221,0.4222,0.4185,0.4187,0.4066,0.405,0.4166,0.4164,0.4164,0,0.4352,0.4327,0.4326,0.4314,0.431,0.4289,0.4278,0.4294,0.428,0.427,0.4249,0.4227,0.4209,0.4168,0.4169,0.4149,0.4155,0.4115,0.4152,0.4147,0.4151,0.4151,0.4148,0.4106,0.4105,0.4104,0.4103,0,0.4253,0.426,0.4244,0.4229,0.4215,0.4204,0.4195,0.4182,0.4198,0.4182,0.4158,0.4145,0.4119,0.4095,0.4077,0.4072,0.4089,0.4092,0.4082,0.4074,0.4071,0.4069,0.4197,0.4093,0.4094,0.4095,0.4096,0.4096,0.4178,0.4156,0.4153,0.4134,0.4129,0.412,0.41,0.4104,0.4085,0.4066,0.4077,0.4048,0.4041,0.4018,0.4012,0.3988,0.4004,0.399,0.3986,0.3981,0.3975,0.4078,0.3985,0.3986,0.3986,0.3986,0.3986,0,0.4078,0.4078,0.406,0.4047,0.4032,0.4053,0.4044,0.4029,0.4004,0.3997,0.3981,0.3953,0.3931,0.3932,0.3911,0.3892,0.3899,0.3886,0.3885,0.3884,0.3964,0.3973,0.388,0.388,0.388,0.388,0.388,0.388,0.4023,0.3987,0.3995,0.3956,0.3956,0.3931,0.3923,0.3914,0.3909,0.3878,0.386,0.3862,0.3857,0.3837,0.3817,0.3818,0.3808,0.3791,0.3794,0.3868,0.3878,0.3888,0.3897,0.3789,0.3789,0.3715,0.3714,0.3714]},{"header":{"parameterUnit":"m.s-1","parameterCategory":1,"la1":30.2991,"la2":30.254,"lo1":-89.0895,"lo2":-89.0444,"dy":0.0017,"dx":0.0017,"nx":28,"ny":28,"refTime":"2023-09-09T21:00:00:Z","depth":0,"parameterNumber":3,"parameterNumberName":"V-component_of_WINDS"},"data":[0,0,0,0,0,0,0,0,0,0,0,0,0,0,0,0,0,0,0,0,0,0,0,0,0,0,0,0,0,0,0,0,0,0,0,0,0,0,0,0,0,0,0,0,0,0,0,0,0,0,0,0,0,0,0,0,0,0,-3.2639,-3.2639,0,-3.2698,-3.2699,-3.27,-3.2638,-3.2636,-3.2633,-3.2631,-3.2692,-3.2695,-3.2699,0,0,0,0,0,0,0,0,0,0,0,0,0,-3.2471,-3.2474,-3.2639,-3.2639,-3.264,-3.2698,-3.2699,-3.27,-3.2638,-3.2635,-3.2633,-3.263,-3.269,-3.2695,-3.27,0,0,0,0,0,0,0,0,0,0,0,0,0,-3.2538,-3.2475,-3.2638,-3.2616,-3.2615,-3.2698,-3.2699,-3.27,-3.2639,-3.2635,-3.2632,-3.2628,-3.2689,-3.2695,-3.27,-3.2808,0,0,-3.2718,-3.272,0,0,0,0,0,0,0,0,-3.2535,-3.2545,-3.2619,-3.2618,-3.2617,-3.2657,-3.2662,-3.2736,-3.264,-3.263,-3.2631,-3.2627,-3.2683,-3.2689,-3.2708,-3.2811,-3.2813,-3.2718,-3.2722,-3.2724,-3.2726,0,0,0,0,0,0,0,-3.253,-3.2542,-3.2662,-3.262,-3.2619,-3.2603,-3.2609,-3.2676,-3.2676,-3.263,-3.2626,-3.2634,-3.2682,-3.2703,-3.2709,-3.2814,-3.2718,-3.2723,-3.2727,-3.2729,-3.3009,-3.3012,0,0,0,0,0,0,-3.2528,-3.2538,-3.266,-3.2664,-3.2566,-3.2609,-3.2616,-3.2648,-3.2675,-3.2676,-3.2637,-3.2631,-3.2695,-3.2702,-3.2711,-3.2839,-3.2724,-3.273,-3.2733,-3.3005,-3.301,-3.3014,0,0,0,0,0,0,-3.2524,-3.2539,-3.2658,-3.26,-3.2614,-3.2616,-3.2653,-3.2651,-3.2672,-3.268,-3.268,-3.2659,-3.2692,-3.2703,-3.2784,-3.284,-3.2732,-3.2738,-3.3,-3.3006,-3.3012,-3.3097,0,0,0,0,0,0,-3.252,-3.2539,-3.258,-3.2601,-3.2617,-3.2731,-3.2656,-3.2655,-3.2682,-3.2675,-3.27,-3.2701,-3.269,-3.2776,-3.279,-3.2847,-3.2742,-3.2995,-3.3003,-3.301,-3.3089,-3.3105,-3.3118,0,0,0,0,0,-3.2514,-3.2601,-3.2582,-3.2597,-3.2669,-3.2734,-3.2743,-3.2729,-3.2687,-3.2728,-3.2733,-3.27,-3.2832,-3.2785,-3.28,-3.2859,-3.2992,-3.3001,-3.3009,-3.3082,-3.3102,-3.3118,0,0,0,0,0,0,-3.2585,-3.2603,-3.2583,-3.2679,-3.2706,-3.2723,-3.2775,-3.275,-3.2789,-3.278,-3.2761,-3.2767,-3.2854,-3.2865,-3.2812,-3.2965,-3.2905,-3.2917,-3.2955,-3.2974,-3.2988,-3.2984,-3.2747,0,0,0,0,0,-3.2612,-3.2664,-3.2677,-3.2761,-3.2775,-3.2773,-3.2801,-3.2788,-3.2815,-3.2825,-3.2837,-3.2864,-3.2911,-3.2943,-3.2987,-3.309,-3.3095,-3.3138,-3.3153,-3.3165,-3.3176,-3.3231,-3.3251,-3.3043,-3.3043,-3.3043,0,0,-3.2669,-3.2685,-3.2719,-3.2776,-3.2794,-3.2848,-3.2783,-3.2843,-3.2883,-3.2834,-3.2912,-3.2922,-3.295,-3.3043,-3.3085,-3.3055,-3.3234,-3.3176,-3.3186,-3.319,-3.3242,-3.3262,-3.328,-3.3049,-3.3048,-3.3047,0,0,-3.2798,-3.2816,-3.2888,-3.2908,-3.2938,-3.2936,-3.2954,-3.2976,-3.298,-3.3058,-3.3023,-3.307,-3.3152,-3.3174,-3.3196,-3.3335,-3.3306,-3.335,-3.3427,-3.3481,-3.3498,-3.3512,-3.3562,-3.358,-3.3361,-3.3361,-3.3361,0,-3.2865,-3.2945,-3.2928,-3.2991,-3.3017,-3.2976,-3.3048,-3.3069,-3.3112,-3.3131,-3.3097,-3.3199,-3.3216,-3.3313,-3.3347,-3.3366,-3.3386,-3.3347,-3.3497,-3.3511,-3.3524,-3.3572,-3.359,-3.3366,-3.3366,-3.3365,-3.3365,0,-3.3024,-3.3081,-3.3135,-3.3178,-3.321,-3.3277,-3.3271,-3.3305,-3.329,-3.3291,-3.3371,-3.339,-3.3437,-3.3459,-3.3444,-3.3555,-3.3536,-3.35,-3.3439,-3.355,-3.3594,-3.3612,-3.3374,-3.3372,-3.337,-3.3369,0,0,-3.3201,-3.3234,-3.3254,-3.3273,-3.3303,-3.3346,-3.3411,-3.3458,-3.3488,-3.3519,-3.3573,-3.3644,-3.3611,-3.3636,-3.3623,-3.3671,-3.378,-3.3629,-3.363,-3.3657,-3.3904,-3.3931,-3.3952,-3.3761,-3.3765,-3.3767,-3.3901,0,-3.3332,-3.3445,-3.3433,-3.3541,-3.3593,-3.3555,-3.3612,-3.3637,-3.364,-3.3685,-3.3688,-3.3739,-3.3691,-3.3706,-3.3752,-3.3757,-3.383,-3.3748,-3.3812,-3.3814,-3.3806,-3.3975,-3.4004,-3.4129,-3.3919,-3.3921,-3.3924,0,-3.3499,-3.3537,-3.3651,-3.3673,-3.3694,-3.3746,-3.3787,-3.383,-3.3857,-3.3857,-3.3885,-3.3864,-3.393,-3.3868,-3.3958,-3.3903,-3.3928,-3.3935,-3.394,-3.3945,-3.3876,-3.3985,-3.4169,-3.4188,-3.395,-3.3948,-3.3946,0,-3.3617,-3.3696,-3.3774,-3.3791,-3.3819,-3.3856,-3.387,-3.3893,-3.3922,-3.3959,-3.3977,-3.4021,-3.4045,-3.4079,-3.4071,-3.4026,-3.4163,-3.41,-3.4165,-3.4165,-3.4195,-3.4194,-3.4386,-3.4212,-3.4212,-3.4211,-3.4211,0,-3.3764,-3.3836,-3.3827,-3.3875,-3.3954,-3.3939,-3.4017,-3.4025,-3.4047,-3.4096,-3.4066,-3.4113,-3.4099,-3.4145,-3.4139,-3.4215,-3.4226,-3.4227,-3.4224,-3.423,-3.423,-3.4246,-3.4237,-3.4216,-3.4215,-3.4214,-3.4213,0,-3.3909,-3.3906,-3.3989,-3.4009,-3.4015,-3.4073,-3.4089,-3.4135,-3.4136,-3.4199,-3.4213,-3.4215,-3.4268,-3.4262,-3.4322,-3.4317,-3.4412,-3.4399,-3.4403,-3.44,-3.4465,-3.4459,-3.4675,-3.4702,-3.451,-3.4512,-3.4513,0,-3.4003,-3.4057,-3.4083,-3.4114,-3.413,-3.418,-3.421,-3.4196,-3.4228,-3.4264,-3.4305,-3.4355,-3.4395,-3.4481,-3.4488,-3.4533,-3.4521,-3.4594,-3.4528,-3.4531,-3.4522,-3.4519,-3.4525,-3.4607,-3.4609,-3.4611,-3.4612,0,-3.4171,-3.4167,-3.4211,-3.4255,-3.4291,-3.4324,-3.4355,-3.4382,-3.4372,-3.4409,-3.4463,-3.4494,-3.4554,-3.4605,-3.4648,-3.4661,-3.4636,-3.4633,-3.465,-3.4656,-3.4656,-3.4657,-3.4439,-3.4628,-3.4626,-3.4625,-3.4624,-3.4624,-3.4294,-3.434,-3.4366,-3.4415,-3.4437,-3.4466,-3.451,-3.4517,-3.4561,-3.461,-3.4599,-3.466,-3.4686,-3.4742,-3.476,-3.4807,-3.4781,-3.4806,-3.4812,-3.4818,-3.4826,-3.4649,-3.4815,-3.4814,-3.4814,-3.4813,-3.4813,0,-3.446,-3.4475,-3.4521,-3.4564,-3.4604,-3.4576,-3.4608,-3.4643,-3.4697,-3.4723,-3.4763,-3.4825,-3.4874,-3.4885,-3.4932,-3.4968,-3.4957,-3.498,-3.4978,-3.4981,-3.4847,-3.4827,-3.4988,-3.4988,-3.4988,-3.4988,-3.4988,-3.4988,-3.4551,-3.4628,-3.4628,-3.4715,-3.4729,-3.4788,-3.4809,-3.4836,-3.4857,-3.4928,-3.4969,-3.4975,-3.4996,-3.5044,-3.5088,-3.5089,-3.5108,-3.5136,-3.5134,-3.5008,-3.4991,-3.4974,-3.4955,-3.5141,-3.5141,-3.5264,-3.5265,-3.5266]}]]